GW3457 Weather Reports


Display with metric or nautical units.
time (UTC)temp
F
wind
direction
speed
MPH
gust
MPH
rain 1hr
in
rain 24hr
in
rain mn
in
humidity
%
barometer
mb
20260831130100 72 0 0.0 3.0 0.00 0.00 0.00 84 1021.1
20260831124552 72 15 2.0 4.0 0.00 0.00 0.00 85 1021.2
20260831123052 71 14 1.0 3.0 0.00 0.00 0.00 87 1020.9
20260831121556 70 0 0.0 3.0 0.00 0.00 0.00 88 1021.1
20260831120054 70 0 0.0 2.0 0.00 0.00 0.00 89 1021.0
20260831114603 70 21 0.0 2.0 0.00 0.00 0.00 89 1020.9
20260831113050 69 28 0.0 2.0 0.00 0.00 0.00 89 1020.8
20260831111556 69 34 0.0 2.0 0.00 0.00 0.00 89 1020.6
20260831110052 69 34 0.0 2.0 0.00 0.00 0.00 89 1020.7
20260831104550 69 0 1.0 3.0 0.00 0.00 0.00 89 1020.4
20260831103054 69 28 1.0 2.0 0.00 0.00 0.00 89 1020.4
20260831101552 69 46 0.0 3.0 0.00 0.00 0.00 89 1020.1
20260831100109 69 34 1.0 4.0 0.00 0.00 0.00 89 1020.1
20260831094550 70 41 0.0 2.0 0.00 0.00 0.00 88 1019.7
20260831093113 70 38 0.0 2.0 0.00 0.00 0.00 88 1019.9
20260831091554 70 0 0.0 2.0 0.00 0.00 0.00 88 1020.0
20260831090059 70 54 0.0 2.0 0.00 0.00 0.00 87 1019.7
20260831084554 70 38 1.0 4.0 0.00 0.00 0.00 87 1019.5
20260831083106 70 0 0.0 1.0 0.00 0.00 0.00 86 1019.5
20260831081559 71 0 0.0 2.0 0.00 0.00 0.00 86 1019.3
20260831080128 71 61 1.0 3.0 0.00 0.00 0.00 85 1019.5
20260831074557 72 104 0.0 2.0 0.00 0.00 0.00 83 1019.5
20260831073059 72 165 0.0 4.0 0.00 0.00 0.00 83 1019.5
20260831071550 72 0 0.0 2.0 0.00 0.00 0.00 82 1019.5
20260831064554 73 312 1.0 4.0 0.00 0.00 0.00 81 1019.4
20260831063108 73 0 0.0 3.0 0.00 0.00 0.00 81 1019.6
20260831061550 74 49 1.0 6.0 0.00 0.00 0.00 80 1019.8
20260831054551 75 17 1.0 8.0 0.00 0.00 0.00 80 1020.0
20260831053131 75 69 0.0 6.0 0.00 0.00 0.00 83 1019.9
20260831051554 75 22 2.0 7.0 0.00 0.00 0.00 84 1019.9
20260831050055 75 294 5.0 9.0 0.00 0.00 0.00 84 1020.0
20260831044637 75 206 1.0 4.0 0.00 0.00 0.00 88 1019.7
20260831043057 75 179 1.0 4.0 0.00 0.00 0.00 88 1019.6
20260831041550 75 288 0.0 2.0 0.00 0.00 0.00 87 1019.6
20260831040052 75 0 0.0 1.0 0.00 0.00 0.00 87 1019.8
20260831034600 75 290 0.0 2.0 0.00 0.00 0.00 87 1019.9
20260831033104 75 0 0.0 1.0 0.00 0.00 0.00 86 1020.0
20260831031556 76 22 0.0 3.0 0.00 0.00 0.00 86 1020.1
20260831030052 76 43 0.0 2.0 0.00 0.00 0.00 85 1020.2
20260831024559 76 0 0.0 1.0 0.00 0.00 0.00 84 1020.2
20260831023055 76 43 0.0 2.0 0.00 0.00 0.00 84 1020.2
20260831021551 77 0 0.0 1.0 0.00 0.00 0.00 83 1020.0
20260831020053 77 0 0.0 2.0 0.00 0.00 0.00 83 1020.1
20260831014601 77 0 0.0 2.0 0.00 0.00 0.00 82 1020.1
20260831013056 77 0 0.0 1.0 0.00 0.00 0.00 81 1020.0
20260831011555 77 0 0.0 3.0 0.00 0.00 0.00 81 1019.8
20260831010110 78 0 0.0 2.0 0.00 0.00 0.00 80 1019.7
20260831004554 79 23 0.0 2.0 0.00 0.00 0.00 78 1019.4
20260831003051 79 0 0.0 0.0 0.00 0.00 0.00 77 1018.9
20260831001548 80 0 0.0 1.0 0.00 0.00 0.00 75 1018.7
20260831000105 81 0 0.0 1.0 0.00 0.00 0.00 73 1018.5
20260830234559 82 0 0.0 3.0 0.00 0.00 0.00 71 1018.2
20260830233051 83 144 1.0 3.0 0.00 0.00 0.00 69 1018.5
20260830231604 84 0 0.0 3.0 0.00 0.00 0.00 67 1018.6
20260830230056 84 0 0.0 3.0 0.00 0.00 0.00 66 1018.6
20260830224550 84 96 1.0 5.0 0.00 0.00 0.00 65 1018.6
20260830223050 85 11 3.0 6.0 0.00 0.00 0.00 65 1018.6
20260830221559 85 65 4.0 9.0 0.00 0.00 0.00 64 1018.5
20260830220057 87 0 2.0 9.0 0.00 0.00 0.00 63 1018.6
20260830214552 86 315 4.0 9.0 0.00 0.00 0.00 63 1018.3
20260830213104 86 13 4.0 8.0 0.00 0.00 0.00 62 1018.3
20260830211553 87 13 3.0 7.0 0.00 0.00 0.00 58 1018.2
20260830210053 87 69 2.0 8.0 0.00 0.00 0.00 57 1018.1
20260830204600 88 61 5.0 8.0 0.00 0.00 0.00 55 1018.0
20260830203056 87 76 3.0 7.0 0.00 0.00 0.00 56 1018.2
20260830201551 88 317 2.0 6.0 0.00 0.00 0.00 54 1018.3
20260830200050 88 319 6.0 11.0 0.00 0.00 0.00 54 1018.4
20260830194559 89 109 5.0 12.0 0.00 0.00 0.00 52 1018.7
20260830193054 91 343 1.0 3.0 0.00 0.00 0.00 48 1018.6
20260830191551 88 248 2.0 7.0 0.00 0.00 0.00 51 1018.9
20260830190050 87 231 2.0 9.0 0.00 0.00 0.00 53 1019.2
20260830184600 85 240 4.0 9.0 0.00 0.00 0.00 57 1019.7
20260830183053 85 169 4.0 8.0 0.00 0.00 0.00 58 1020.0
20260830181551 86 213 3.0 8.0 0.00 0.00 0.00 56 1020.2
20260830174557 86 319 2.0 8.0 0.00 0.00 0.00 54 1020.3
20260830173052 87 160 2.0 11.0 0.00 0.00 0.00 53 1020.4
20260830171549 86 57 2.0 8.0 0.00 0.00 0.00 57 1020.7
20260830170059 87 43 3.0 9.0 0.00 0.00 0.00 55 1020.9
20260830164550 87 283 1.0 10.0 0.00 0.00 0.00 57 1021.0
20260830163100 85 331 2.0 6.0 0.00 0.00 0.00 59 1021.2
20260830161613 84 72 1.0 4.0 0.00 0.00 0.00 60 1021.4
20260830160052 82 217 1.0 4.0 0.00 0.00 0.00 63 1021.6
20260830154600 81 239 1.0 5.0 0.00 0.00 0.00 64 1021.6
20260830153058 81 94 1.0 5.0 0.00 0.00 0.00 65 1021.9
20260830151549 82 0 0.0 2.0 0.00 0.00 0.00 64 1021.9
20260830150114 81 0 2.0 7.0 0.00 0.00 0.00 65 1022.0
20260830144550 80 234 1.0 4.0 0.00 0.00 0.00 67 1022.0
20260830143057 79 84 1.0 3.0 0.00 0.00 0.00 68 1021.9
20260830141550 77 251 1.0 5.0 0.00 0.00 0.00 70 1021.8
20260830140050 76 173 1.0 5.0 0.00 0.00 0.00 72 1021.8
20260830134555 74 202 1.0 3.0 0.00 0.00 0.00 74 1021.9
20260830133050 72 0 0.0 2.0 0.00 0.00 0.00 76 1022.0
20260830131551 70 0 0.0 2.0 0.00 0.00 0.00 77 1022.1